Home   Weather   Waldkraiburg   Past weeks

Flag for Germany Past Weather in Waldkraiburg, Bavaria, Germany — Yesterday and Last 2 Weeks

39 °F

Partly sunny.

Feels Like: 39 °F
Forecast: 30 / 51 °F
Wind: 2 mph from North

Location: Munich / Franz Josef Strauss Airport

Current Time: Oct 22, 2016 at 9:03:03 AM

Latest Report: Oct 22, 2016 at 8:20 AM

Visibility: N/A

Pressure: 29.98 "Hg

Humidity: 100%

Dew Point: 39 °F

Location of WaldkraiburgLocation

Past Weather in Waldkraiburg — Graph


Waldkraiburg Temperature Yesterday

Maximum temperature yesterday: 46 °F (at 1:20 PM)
Minimum temperature yesterday: 39 °F (at 12:20 AM)
Average temperature yesterday: 43 °F

High & Low Weather Summary for the Past Weeks

High66 °F (Oct 16, 3:50 PM)100% (Oct 7, 7:20 AM)30.24 "Hg (Oct 7, 7:20 AM)
Low30 °F (Oct 10, 4:50 AM)47% (Oct 9, 3:20 PM)29.65 "Hg (Oct 14, 11:20 PM)
Average46 °F90%30.06 "Hg
* Reported Oct 7 7:20 AM — Oct 22 7:50 AM, Waldkraiburg, Weather by CustomWeather, © 2016

Note: Actual official high and low records may vary slightly from our data, if they occured in-between our weather recording intervals... More about our weather records


Waldkraiburg Weather History for the Previous 24 Hours

Scroll right to see more
Time TempWeatherWind HumidityBarometerVisibility
7:50 AM
Sat, Oct 22
39 °FBroken clouds.2 mph100%29.98 "HgN/A
7:20 AM39 °FPassing clouds.2 mph100%29.95 "HgN/A
6:50 AM39 °FPassing clouds.1 mph100%29.95 "HgN/A
6:20 AM39 °FPassing clouds.1 mph93%29.95 "HgN/A
5:50 AM39 °FPartly cloudy.3 mph93%29.95 "HgN/A
5:20 AM41 °FPassing clouds.5 mph93%29.95 "HgN/A
4:50 AM41 °FPassing clouds.2 mph93%29.98 "HgN/A
4:20 AM41 °FPartly cloudy.5 mph93%29.98 "HgN/A
3:50 AM41 °FPartly cloudy.3 mph93%29.98 "HgN/A
3:20 AM41 °FPartly cloudy.5 mph93%29.98 "HgN/A
2:20 AM41 °FPassing clouds.5 mph93%29.98 "HgN/A
1:50 AM41 °FPassing clouds.5 mph93%29.98 "HgN/A
1:20 AM41 °FMostly cloudy.6 mph100%30.01 "HgN/A
12:50 AM41 °FPartly cloudy.5 mph100%30.01 "HgN/A
12:20 AM41 °FPartly cloudy.5 mph100%30.01 "HgN/A
11:50 PM
Fri, Oct 21
41 °FPartly cloudy.6 mph93%30.01 "HgN/A
11:20 PM41 °FPartly cloudy.6 mph100%30.01 "HgN/A
10:50 PM41 °FPartly cloudy.6 mph100%30.01 "HgN/A
10:20 PM43 °FLight rain. Passing clouds.6 mph93%30.01 "HgN/A
9:50 PM43 °FPartly cloudy.6 mph93%30.01 "HgN/A
9:20 PM43 °FPartly cloudy.8 mph93%30.01 "HgN/A
8:50 PM43 °FPartly cloudy.8 mph93%30.01 "HgN/A
8:20 PM43 °FPassing clouds.7 mph93%30.01 "HgN/A
7:50 PM41 °FPartly cloudy.7 mph100%29.98 "HgN/A
7:20 PM43 °FPartly cloudy.8 mph93%29.98 "HgN/A
6:50 PM43 °FPassing clouds.6 mph87%29.98 "HgN/A
6:20 PM43 °FPassing clouds.5 mph87%29.98 "HgN/A
5:50 PM43 °FScattered clouds.6 mph81%29.98 "HgN/A
5:20 PM45 °FScattered clouds.6 mph81%29.98 "HgN/A
4:50 PM45 °FPartly sunny.6 mph81%29.98 "HgN/A
4:20 PM45 °FPartly sunny.5 mph81%29.95 "HgN/A
3:50 PM45 °FPartly sunny.5 mph81%29.95 "HgN/A
3:20 PM45 °FSprinkles. Broken clouds.3 mph81%29.95 "HgN/A
2:50 PM46 °FSprinkles. Broken clouds.7 mph71%29.95 "HgN/A
2:20 PM46 °FScattered showers. Broken clouds.5 mph76%29.95 "HgN/A
1:50 PM45 °FPartly sunny.5 mph81%29.95 "HgN/A
1:20 PM46 °FScattered clouds.7 mph76%29.95 "HgN/A
12:50 PM45 °FScattered clouds.5 mph81%29.95 "HgN/A
12:20 PM45 °FScattered clouds.5 mph81%29.95 "HgN/A
11:50 AM45 °FBroken clouds.6 mph81%29.95 "HgN/A
11:20 AM45 °FBroken clouds.6 mph81%29.95 "HgN/A
10:50 AM43 °FBroken clouds.6 mph87%29.95 "HgN/A
10:20 AM43 °FBroken clouds.5 mph93%29.95 "HgN/A
9:50 AM43 °FScattered showers. Broken clouds.6 mph87%29.95 "HgN/A
9:20 AM43 °FSprinkles. Partly sunny.8 mph93%29.95 "HgN/A
Weather by CustomWeather, © 2016

See weather overviewHow to use our weather pages